MAKIL Weather Reports


Display with metric or nautical units.
time (UTC)temp
F
wind
direction
speed
MPH
gust
MPH
rain 1hr
in
rain 24hr
in
rain mn
in
humidity
%
barometer
mb
20260906042124 52 330 20.0 25.0 0.00 0.00 0.00 85
20260906040454 51 332 22.0 27.0 0.00 0.00 0.00 87
20260906034454 51 335 24.0 30.0 0.00 0.00 0.00 88
20260906024454 50 330 23.0 27.0 0.00 0.00 0.00 89
20260906022455 50 329 22.0 26.0 0.00 0.00 0.00 90
20260906020454 50 336 23.0 27.0 0.00 0.00 0.00 90
20260906014455 50 337 23.0 28.0 0.00 0.00 0.00 89
20260906012454 51 335 23.0 28.0 0.00 0.00 0.00 89
20260906010455 51 336 24.0 28.0 0.00 0.00 0.00 89
20260906004455 52 333 23.0 28.0 0.00 0.00 0.00 88
20260906002454 52 342 22.0 28.0 0.00 0.00 0.00 88
20260906000455 53 337 21.0 26.0 0.00 0.00 0.00 86
20260905234453 53 340 21.0 25.0 0.00 0.00 0.00 86
20260905232453 54 344 19.0 25.0 0.00 0.00 0.00 87
20260905230453 54 345 21.0 25.0 0.00 0.00 0.00 86
20260905222453 54 347 17.0 22.0 0.00 0.00 0.00 87
20260905220453 55 351 16.0 21.0 0.00 0.00 0.00 84
20260905214453 55 345 17.0 21.0 0.00 0.00 0.00 86
20260905212454 55 343 18.0 22.0 0.00 0.00 0.00 84
20260905210453 56 338 18.0 20.0 0.00 0.00 0.00 84
20260905204453 57 339 17.0 20.0 0.00 0.00 0.00 83
20260905202453 57 338 18.0 23.0 0.00 0.00 0.00 82
20260905200454 58 335 16.0 20.0 0.00 0.00 0.00 82
20260905192122 59 313 15.0 18.0 0.00 0.00 0.00 79
20260905190452 58 309 14.0 15.0 0.00 0.00 0.00 80
20260905184454 58 309 12.0 15.0 0.00 0.00 0.00 82
20260905182451 57 312 10.0 12.0 0.00 0.00 0.00 84
20260905180450 58 325 9.0 11.0 0.00 0.00 0.00 80
20260905174450 58 337 11.0 13.0 0.00 0.00 0.00 75
20260905170452 59 299 8.0 11.0 0.00 0.00 0.00 77
20260905164453 61 319 6.0 7.0 0.00 0.00 0.00 71
20260905162123 62 337 6.0 8.0 0.00 0.00 0.00 75
20260905154452 62 276 13.0 17.0 0.00 0.00 0.00 75
20260905152453 62 271 16.0 19.0 0.00 0.00 0.00 78
20260905150451 61 263 19.0 22.0 0.00 0.00 0.00 78
20260905144452 62 258 21.0 25.0 0.00 0.00 0.00 79
20260905130455 64 252 17.0 19.0 0.00 0.00 0.00 67
20260905124451 65 251 15.0 18.0 0.00 0.00 0.00 67
20260905122121 65 248 14.0 18.0 0.00 0.00 0.00 65
20260905120451 65 249 14.0 17.0 0.00 0.00 0.00 66
20260905114451 65 251 13.0 15.0 0.00 0.00 0.00 66
20260905112453 66 249 8.0 11.0 0.00 0.00 0.00 62
20260905104451 64 259 8.0 10.0 0.00 0.00 0.00 69
20260905102451 64 274 7.0 8.0 0.00 0.00 0.00 67
20260905100451 62 286 8.0 9.0 0.00 0.00 0.00 72
20260905094450 63 290 7.0 9.0 0.00 0.00 0.00 71
20260905092450 60 294 7.0 9.0 0.00 0.00 0.00 74
20260905090452 61 302 8.0 9.0 0.00 0.00 0.00 73
20260905084451 61 304 7.0 9.0 0.00 0.00 0.00 70
20260905082453 60 316 8.0 10.0 0.00 0.00 0.00 78
20260905080449 60 313 9.0 10.0 0.00 0.00 0.00 77
20260905074120 61 319 8.0 9.0 0.00 0.00 0.00 76
20260905072449 61 307 6.0 8.0 0.00 0.00 0.00 79
20260905070453 60 303 6.0 8.0 0.00 0.00 0.00 79
20260905064449 59 304 5.0 6.0 0.00 0.00 0.00 83
20260905062449 58 316 6.0 8.0 0.00 0.00 0.00 86
20260905060450 57 334 5.0 6.0 0.00 0.00 0.00 87
20260905052449 56 332 5.0 6.0 0.00 0.00 0.00 92
20260905050450 54 344 4.0 5.0 0.00 0.00 0.00 97
20260905044451 53 356 5.0 6.0 0.00 0.00 0.00 97